EB7GYR Weather Reports


time (UTC)temp
F
wind
direction
speed
knots
gust
knots
rain 1hr
in
rain 24hr
in
rain mn
in
humidity
%
barometer
mb
20260508142517 73 180 3.5 8.7 0.00 0.00 0.00 54 1008.5
20260508141518 73 225 4.3 8.7 0.00 0.00 0.00 54 1008.6
20260508140517 73 270 3.5 7.0 0.00 0.00 0.00 53 1008.7
20260508135517 73 158 5.2 8.7 0.00 0.00 0.00 52 1009.0
20260508134518 73 180 5.2 9.6 0.00 0.00 0.00 50 1009.1
20260508133557 73 225 5.2 11.3 0.00 0.00 0.00 49 1009.2
20260508132516 73 225 5.2 11.3 0.00 0.00 0.00 48 1009.3
20260508131516 73 203 4.3 8.7 0.00 0.00 0.00 49 1009.3
20260508130517 73 180 3.5 7.8 0.00 0.00 0.00 49 1009.3
20260508125517 73 180 5.2 11.3 0.00 0.00 0.00 50 1009.4
20260508124517 72 180 5.2 9.6 0.00 0.00 0.00 51 1009.4
20260508123517 73 225 1.7 6.1 0.00 0.00 0.00 49 1009.4
20260508122517 73 158 5.2 10.4 0.00 0.00 0.00 49 1009.6
20260508121517 72 113 3.5 6.1 0.00 0.00 0.00 50 1009.5
20260508120518 71 225 6.1 11.3 0.00 0.00 0.00 50 1009.6
20260508115536 72 225 3.5 8.7 0.00 0.00 0.00 49 1009.8
20260508114516 72 180 3.5 7.8 0.00 0.00 0.00 49 1009.9
20260508113516 71 158 1.7 7.0 0.00 0.00 0.00 49 1010.0
20260508112517 70 203 1.7 5.2 0.00 0.00 0.00 50 1010.1
20260508111517 70 225 4.3 8.7 0.00 0.00 0.00 51 1010.1
20260508110517 70 203 2.6 6.1 0.00 0.00 0.00 52 1010.2
20260508105516 70 180 3.5 6.1 0.00 0.00 0.00 52 1010.2
20260508104516 69 158 2.6 5.2 0.00 0.00 0.00 52 1010.3
20260508103517 68 203 2.6 7.8 0.00 0.00 0.00 53 1010.3
20260508102517 68 180 2.6 6.1 0.00 0.00 0.00 55 1010.4
20260508101516 68 225 1.7 7.0 0.00 0.00 0.00 56 1010.4
20260508100516 68 135 4.3 8.7 0.00 0.00 0.00 56 1010.4
20260508095517 68 113 2.6 6.1 0.00 0.00 0.00 57 1010.4
20260508094516 67 135 1.7 7.0 0.00 0.00 0.00 59 1010.5
20260508093516 67 203 0.9 4.3 0.00 0.00 0.00 60 1010.6
20260508092516 66 180 1.7 8.7 0.00 0.00 0.00 65 1010.8
20260508091516 65 180 0.9 1.7 0.00 0.00 0.00 66 1010.9
20260508090516 65 203 2.6 5.2 0.00 0.00 0.00 66 1010.9
20260508085516 65 203 3.5 7.0 0.00 0.00 0.00 67 1011.0
20260508084516 65 203 2.6 7.8 0.00 0.00 0.00 66 1011.0
20260508083516 65 203 2.6 7.0 0.00 0.00 0.00 67 1010.8
20260508082517 65 180 4.3 7.0 0.00 0.00 0.00 66 1010.7
20260508081516 65 158 1.7 6.1 0.00 0.00 0.00 69 1010.8
20260508080517 64 135 2.6 6.1 0.00 0.00 0.00 71 1010.8
20260508075537 63 180 2.6 5.2 0.00 0.00 0.00 74 1010.8
20260508074516 63 135 2.6 7.0 0.00 0.00 0.00 75 1010.6
20260508073516 62 158 4.3 7.8 0.00 0.00 0.00 77 1010.6
20260508072517 61 158 2.6 5.2 0.00 0.00 0.00 79 1010.5
20260508071538 60 135 4.3 7.0 0.00 0.00 0.00 79 1010.3
20260508070516 59 135 2.6 4.3 0.00 0.00 0.00 81 1010.5
20260508065516 59 158 2.6 4.3 0.00 0.00 0.00 82 1010.4
20260508064516 58 135 0.9 3.5 0.00 0.00 0.00 83 1010.4
20260508063537 58 180 2.6 5.2 0.00 0.00 0.00 83 1010.3
20260508062516 57 158 3.5 7.0 0.00 0.00 0.00 83 1010.3
20260508061516 57 135 3.5 6.1 0.00 0.00 0.00 83 1010.4
20260508060517 57 135 2.6 4.3 0.00 0.00 0.00 82 1010.3
20260508055516 57 135 3.5 6.1 0.00 0.00 0.00 82 1010.2
20260508054516 57 0.0 0.0 0.00 0.00 0.00 82 1010.1
20260508053516 57 0.0 0.0 0.00 0.00 0.00 81 1010.0
20260508052516 58 0.0 0.0 0.00 0.00 0.00 81 1009.7
20260508051517 58 180 0.9 2.6 0.00 0.00 0.00 81 1009.6
20260508050517 58 225 0.9 3.5 0.00 0.00 0.00 81 1009.5
20260508045518 58 225 0.9 3.5 0.00 0.00 0.00 82 1009.5
20260508044518 58 248 0.9 3.5 0.00 0.00 0.00 81 1009.4
20260508043517 58 0.0 0.0 0.00 0.00 0.00 81 1009.2
20260508042519 58 158 0.9 3.5 0.00 0.00 0.00 81 1009.2
20260508041517 58 0.0 0.0 0.00 0.00 0.00 80 1009.2
20260508040518 58 158 0.9 2.6 0.00 0.00 0.00 80 1009.2
20260508035519 58 158 2.6 6.1 0.00 0.00 0.00 80 1009.3
20260508034518 58 158 1.7 3.5 0.00 0.00 0.00 80 1009.2
20260508033519 58 135 0.9 3.5 0.00 0.00 0.00 80 1009.2
20260508032517 58 135 0.9 4.3 0.00 0.00 0.00 80 1009.2
20260508031517 58 158 0.9 4.3 0.00 0.00 0.00 80 1009.5
20260508030517 58 135 2.6 6.1 0.00 0.00 0.00 80 1009.5
20260508025517 58 135 3.5 7.0 0.00 0.00 0.00 80 1009.6
20260508024517 58 135 1.7 6.1 0.00 0.00 0.00 80 1009.6
20260508023517 58 158 1.7 4.3 0.00 0.00 0.00 80 1009.7
20260508022517 58 135 2.6 5.2 0.00 0.00 0.00 79 1009.5
20260508021559 58 135 0.9 3.5 0.00 0.00 0.00 79 1009.6
20260508020517 59 135 0.9 4.3 0.00 0.00 0.00 79 1009.6
20260508015517 59 158 0.9 4.3 0.00 0.00 0.00 79 1009.8
20260508014517 59 158 0.9 4.3 0.00 0.00 0.00 79 1009.8
20260508013517 59 158 2.6 5.2 0.00 0.00 0.00 79 1010.0
20260508012517 59 158 3.5 6.1 0.00 0.00 0.00 79 1009.9
20260508011517 59 135 1.7 3.5 0.00 0.00 0.00 78 1009.8
20260508010517 59 180 1.7 4.3 0.00 0.00 0.00 78 1010.1
20260508005517 59 135 1.7 4.3 0.00 0.00 0.00 78 1010.0
20260508004517 59 158 1.7 3.5 0.00 0.00 0.00 78 1010.1
20260508003517 59 158 0.9 4.3 0.00 0.00 0.00 78 1010.2
20260508002539 59 0.0 2.6 0.00 0.00 0.00 78 1010.3
20260508001517 59 158 2.6 5.2 0.00 0.00 0.00 77 1010.3
20260508000517 59 158 2.6 4.3 0.00 0.00 0.00 77 1010.3
20260507235517 59 158 2.6 4.3 0.00 0.00 0.00 76 1010.3
20260507234517 59 135 1.7 4.3 0.00 0.00 0.00 76 1010.2
20260507233517 60 135 2.6 4.3 0.00 0.00 0.00 76 1010.2
20260507232517 60 113 2.6 5.2 0.00 0.00 0.00 74 1010.2
20260507231518 60 158 1.7 4.3 0.00 0.00 0.00 74 1010.4
20260507230517 60 158 1.7 3.5 0.00 0.00 0.00 74 1010.5
20260507225517 60 135 2.6 5.2 0.00 0.00 0.00 74 1010.6
20260507224517 60 113 2.6 3.5 0.00 0.00 0.00 73 1010.6
20260507223517 61 113 2.6 6.1 0.00 0.00 0.00 72 1010.8
20260507222517 62 0.0 2.6 0.00 0.00 0.00 70 1010.9
20260507221517 62 203 1.7 4.3 0.00 0.00 0.00 69 1010.9
20260507220517 62 180 1.7 5.2 0.00 0.00 0.00 69 1010.9
20260507215518 62 203 2.6 6.1 0.00 0.00 0.00 69 1010.9
20260507214517 62 203 3.5 6.1 0.00 0.00 0.00 69 1010.9
20260507213538 63 203 1.7 3.5 0.00 0.00 0.00 69 1010.8
20260507212518 63 225 1.7 5.2 0.00 0.00 0.00 69 1010.9
20260507211558 63 203 2.6 5.2 0.00 0.00 0.00 68 1010.8
20260507210517 63 225 3.5 7.0 0.00 0.00 0.00 68 1010.8
20260507205517 63 225 1.7 4.3 0.00 0.00 0.00 68 1010.8
20260507204538 63 248 2.6 6.1 0.00 0.00 0.00 68 1010.8
20260507203518 63 248 2.6 7.0 0.00 0.00 0.00 68 1010.7
20260507202517 63 225 1.7 6.1 0.00 0.00 0.00 68 1010.5
20260507201558 63 248 3.5 7.8 0.00 0.00 0.00 67 1010.3
20260507200518 63 225 4.3 7.8 0.00 0.00 0.00 68 1010.2
20260507195537 63 225 4.3 7.8 0.00 0.00 0.00 68 1010.2
20260507194517 63 225 2.6 7.0 0.00 0.00 0.00 67 1010.1
20260507193539 63 225 4.3 9.6 0.00 0.00 0.00 67 1010.0
20260507192537 63 248 5.2 9.6 0.00 0.00 0.00 67 1009.9
20260507191517 64 225 5.2 12.2 0.00 0.00 0.00 67 1009.9
20260507190517 64 225 6.1 13.9 0.00 0.00 0.00 67 1009.7
20260507185518 64 248 5.2 12.2 0.00 0.00 0.00 66 1009.5
20260507184517 64 225 7.0 13.0 0.00 0.00 0.00 65 1009.6
20260507183517 65 248 4.3 9.6 0.00 0.00 0.00 65 1009.5
20260507182518 65 225 6.1 12.2 0.00 0.00 0.00 64 1009.4
20260507181518 66 225 7.0 12.2 0.00 0.00 0.00 63 1009.3
20260507180517 66 225 7.0 13.9 0.00 0.00 0.00 62 1009.3
20260507175538 67 225 6.1 13.0 0.00 0.00 0.00 60 1009.3
20260507174518 67 225 5.2 12.2 0.00 0.00 0.00 59 1009.3
20260507173517 68 225 5.2 13.9 0.00 0.00 0.00 56 1009.3
20260507172518 68 225 6.1 10.4 0.00 0.00 0.00 56 1009.2
20260507171517 69 225 6.1 11.3 0.00 0.00 0.00 55 1009.1
20260507170557 69 225 5.2 13.0 0.00 0.00 0.00 55 1008.9
20260507165517 69 225 7.0 11.3 0.00 0.00 0.00 55 1008.9
20260507164517 69 225 7.0 11.3 0.00 0.00 0.00 56 1008.9
20260507163518 69 225 6.1 11.3 0.00 0.00 0.00 55 1008.8
20260507162518 69 225 7.0 13.0 0.00 0.00 0.00 55 1008.8
20260507161517 70 225 4.3 8.7 0.00 0.00 0.00 55 1008.8
20260507160517 70 225 7.8 13.0 0.00 0.00 0.00 55 1008.7
20260507155517 70 203 6.1 14.8 0.00 0.00 0.00 54 1008.6
20260507154558 70 203 7.8 13.9 0.00 0.00 0.00 54 1008.7
20260507153517 70 225 7.8 17.4 0.00 0.00 0.00 54 1008.7
20260507152517 70 203 7.0 15.6 0.00 0.00 0.00 54 1008.7
20260507151516 70 203 7.0 13.9 0.00 0.00 0.00 52 1008.8
20260507150517 70 203 7.0 15.6 0.00 0.00 0.00 52 1008.8
20260507145517 70 180 6.1 10.4 0.00 0.00 0.00 55 1008.9
20260507144516 69 203 7.0 13.0 0.00 0.00 0.00 55 1009.0
20260507143517 70 225 7.8 14.8 0.00 0.00 0.00 54 1009.1